Flag for France Weather past 2 weeks in Villeurbanne, France

Now
70 °F

Sunny.


Feels Like: 70 °F
Forecast: 55 / 74 °F
Wind: 20 mph from North

Location: Lyon / Bron

Current Time: May 23, 2015 at 5:35:34 PM

Latest Report: May 23, 2015 at 5:00 PM


Visibility: 10 mi

Pressure: 29.98 "Hg

Humidity: 33%

Dew point: 39 °F

Location of VilleurbanneLocation

Historic Weather in Villeurbanne — Graph

°F

Villeurbanne temperature yesterday

Maximum temperature yesterday: 70 °F (at 5:00 PM)
Minimum temperature yesterday: 48 °F (at 6:00 AM)
Average temperature yesterday: 60 °F

Past Weeks' High & Low Weather Summary

 TemperatureHumidityPressure
High84 °F (May 12, 4:30 PM)94% (May 10, 4:00 AM)30.36 "Hg (May 10, 4:00 AM)
Low46 °F (May 21, 12:30 AM)20% (May 12, 6:00 PM)29.80 "Hg (May 18, 6:00 PM)
Average62 °F59%30.11 "Hg
* Reported May 8 4:00 PM — May 23 4:30 PM, Villeurbanne, Weather by CustomWeather, © 2015

Note: Actual official high and low records may vary slightly from our data, if they occured in-between our weather recording intervals... More about our weather records

Advertising

Villeurbanne weather history for previous 24 hours

 ConditionsComfort  
Time TempWeatherWind HumidityBarometerVisibility
4:30 PM
Sat, May 23
72 °FSunny.22 mph29%29.98 "Hg10 mi
4:00 PM72 °FPassing clouds.21 mph31%29.98 "HgN/A
3:30 PM72 °FPassing clouds.21 mph31%29.98 "HgN/A
3:00 PM70 °FPassing clouds.21 mph33%29.98 "HgN/A
2:30 PM72 °FPassing clouds.24 mph33%29.98 "HgN/A
2:00 PM70 °FPassing clouds.21 mph35%29.98 "HgN/A
1:30 PM68 °FSunny.20 mph38%29.98 "Hg10 mi
1:00 PM68 °FSunny.20 mph35%30.01 "Hg10 mi
12:30 PM66 °FPassing clouds.22 mph37%30.01 "HgN/A
12:00 PM66 °FPassing clouds.23 mph37%30.01 "HgN/A
11:30 AM66 °FSunny.20 mph40%30.01 "Hg10 mi
11:00 AM64 °FPassing clouds.20 mph43%30.01 "HgN/A
10:30 AM63 °FPassing clouds.20 mph45%30.04 "HgN/A
10:00 AM61 °FPassing clouds.20 mph45%30.04 "HgN/A
9:30 AM59 °FPassing clouds.16 mph51%30.04 "HgN/A
9:00 AM59 °FSunny.16 mph51%30.04 "Hg10 mi
8:30 AM57 °FPassing clouds.16 mph59%30.04 "HgN/A
8:00 AM55 °FSunny.14 mph63%30.04 "Hg10 mi
7:30 AM54 °FSunny.12 mph67%30.04 "Hg10 mi
7:00 AM54 °FClear.9 mph67%30.04 "Hg10 mi
6:30 AM54 °FPassing clouds.13 mph67%30.04 "HgN/A
6:00 AM54 °FClear.14 mph67%30.04 "Hg10 mi
5:30 AM54 °FClear.12 mph67%30.04 "Hg10 mi
5:00 AM55 °FClear.12 mph63%30.04 "Hg10 mi
4:30 AM55 °FClear.13 mph63%30.04 "Hg10 mi
4:00 AM55 °FClear.13 mph63%30.04 "Hg10 mi
3:30 AM57 °FPassing clouds.12 mph59%30.07 "HgN/A
3:00 AM57 °FClear.13 mph59%30.07 "Hg10 mi
2:30 AM57 °FClear.13 mph55%30.07 "Hg10 mi
2:00 AM57 °FClear.13 mph55%30.07 "Hg10 mi
1:30 AM59 °FPassing clouds.13 mph51%30.09 "HgN/A
1:00 AM59 °FPassing clouds.14 mph51%30.09 "HgN/A
12:30 AM59 °FClear.14 mph51%30.09 "Hg10 mi
12:00 AM61 °FClear.17 mph48%30.09 "Hg10 mi
11:30 PM
Fri, May 22
61 °FClear.18 mph48%30.09 "Hg10 mi
11:00 PM61 °FPassing clouds.15 mph48%30.09 "HgN/A
10:30 PM63 °FPassing clouds.17 mph45%30.09 "HgN/A
10:00 PM63 °FSunny.17 mph42%30.09 "Hg10 mi
9:30 PM64 °FSunny.15 mph37%30.09 "Hg10 mi
9:00 PM64 °FSunny.15 mph37%30.09 "Hg10 mi
8:30 PM66 °FSunny.17 mph32%30.09 "Hg10 mi
8:00 PM68 °FPassing clouds.18 mph30%30.09 "HgN/A
7:30 PM68 °FSunny.18 mph30%30.09 "Hg10 mi
7:00 PM68 °FSunny.18 mph30%30.09 "Hg10 mi
6:30 PM68 °FPassing clouds.22 mph30%30.09 "HgN/A
6:00 PM68 °FPassing clouds.18 mph28%30.09 "HgN/A
5:30 PM68 °FSunny.21 mph28%30.09 "Hg10 mi
5:00 PM70 °FPassing clouds.24 mph27%30.12 "HgN/A
Weather by CustomWeather, © 2015

See weather overviewHow to use our weather pages